EW0235 Weather Reports


time (UTC)temp
F
wind
direction
speed
knots
gust
knots
rain 1hr
in
rain 24hr
in
rain mn
in
humidity
%
barometer
mb
20260506044513 70 249 0.0 0.0 0.00 0.00 0.00 53 1012.7
20260506043005 70 248 0.0 0.0 0.00 0.00 0.00 53 1013.0
20260506041504 70 249 0.0 0.0 0.00 0.00 0.00 54 1012.9
20260506040002 71 249 0.0 0.0 0.00 0.00 0.00 54 1012.8
20260506034503 71 249 0.0 0.0 0.00 0.00 0.00 53 1012.8
20260506033002 71 247 0.0 0.0 0.00 0.00 0.00 52 1012.8
20260506031501 72 247 0.0 0.0 0.00 0.00 0.00 50 1013.0
20260506030100 72 247 0.0 0.0 0.00 0.00 0.00 49 1013.1
20260506024608 71 247 0.0 0.0 0.00 0.00 0.00 49 1013.2
20260506023111 71 247 0.0 0.0 0.00 0.00 0.00 48 1013.0
20260506021603 72 247 0.0 0.0 0.00 0.00 0.00 49 1012.6
20260506020059 72 247 0.0 0.0 0.00 0.00 0.00 49 1012.7
20260506014558 71 247 0.0 0.0 0.00 0.00 0.00 49 1012.7
20260506013104 72 247 0.0 0.0 0.00 0.00 0.00 49 1012.8
20260506011605 72 247 0.0 0.0 0.00 0.00 0.00 48 1012.7
20260506010057 73 247 0.0 0.0 0.00 0.00 0.00 47 1012.4
20260506004600 74 247 0.0 0.0 0.00 0.00 0.00 46 1012.6
20260506003056 74 247 0.0 0.0 0.00 0.00 0.00 46 1012.7
20260506001558 74 247 0.0 0.0 0.00 0.00 0.00 45 1012.6
20260505234555 76 247 0.0 0.0 0.00 0.00 0.00 43 1012.5
20260505233057 76 247 0.0 0.0 0.00 0.00 0.00 43 1012.5
20260505231554 76 248 0.0 0.0 0.00 0.00 0.00 45 1012.4
20260505230119 76 256 0.0 0.0 0.00 0.00 0.00 44 1012.4
20260505224553 76 256 0.0 0.0 0.00 0.00 0.00 45 1012.4
20260505223052 76 256 0.0 0.0 0.00 0.00 0.00 44 1012.4
20260505221557 76 256 0.0 0.0 0.00 0.00 0.00 43 1012.3
20260505220056 76 257 0.0 0.0 0.00 0.00 0.00 44 1012.2
20260505214550 76 243 0.0 0.0 0.00 0.00 0.00 43 1012.3
20260505213047 76 228 0.0 0.0 0.00 0.00 0.00 42 1012.6
20260505211558 76 227 0.0 0.0 0.00 0.00 0.00 44 1012.6
20260505210046 76 226 0.0 0.0 0.00 0.00 0.00 44 1012.6
20260505204544 77 237 0.0 0.0 0.00 0.00 0.00 43 1012.8
20260505203044 77 240 0.0 0.0 0.00 0.00 0.00 41 1012.9
20260505201548 77 237 0.0 0.0 0.00 0.00 0.00 42 1013.2
20260505200042 77 237 0.0 0.0 0.00 0.00 0.00 44 1013.4
20260505194542 77 235 0.0 0.0 0.00 0.00 0.00 45 1013.7
20260505193044 76 272 0.0 0.0 0.00 0.00 0.00 42 1013.7
20260505191541 76 243 0.0 0.0 0.00 0.00 0.00 44 1013.8
20260505190035 76 226 0.0 0.0 0.00 0.00 0.00 44 1013.9
20260505184535 76 230 0.0 0.0 0.00 0.00 0.00 44 1014.0
20260505183037 76 260 0.0 0.0 0.00 0.00 0.00 45 1014.3
20260505181534 77 186 0.0 0.0 0.00 0.00 0.00 41 1014.7
20260505180032 77 243 0.0 0.0 0.00 0.00 0.00 42 1014.7
20260505174529 77 206 0.0 0.0 0.00 0.00 0.00 44 1015.0
20260505173027 77 251 0.0 0.0 0.00 0.00 0.00 45 1015.2
20260505171526 77 270 0.0 0.0 0.00 0.00 0.00 44 1015.3
20260505170030 76 230 0.0 0.0 0.00 0.00 0.00 44 1015.2
20260505164523 75 185 0.0 0.0 0.00 0.00 0.00 43 1015.1
20260505163021 75 232 0.0 0.0 0.00 0.00 0.00 46 1015.1
20260505161536 75 272 0.0 0.0 0.00 0.00 0.00 50 1015.4
20260505153018 75 48 0.0 0.0 0.00 0.00 0.00 48 1015.5
20260505151516 74 241 0.0 0.0 0.00 0.00 0.00 49 1015.6
20260505124551 57 183 0.0 0.0 0.00 0.00 0.00 81 1015.2
20260505123046 55 183 0.0 0.0 0.00 0.00 0.00 86 1014.9
20260505121545 53 183 0.0 0.0 0.00 0.00 0.00 88 1015.0
20260505120046 52 183 0.0 0.0 0.00 0.00 0.00 89 1015.1
20260505114542 51 183 0.0 0.0 0.00 0.00 0.00 88 1014.9
20260505113042 51 183 0.0 0.0 0.00 0.00 0.00 87 1014.6
20260505111541 51 183 0.0 0.0 0.00 0.00 0.00 86 1014.4
20260505101543 52 22 0.0 0.0 0.00 0.00 0.00 84 1014.1
20260505100035 52 22 0.0 0.0 0.00 0.00 0.00 84 1014.5
20260505094532 52 22 0.0 0.0 0.00 0.00 0.00 83 1014.2
20260505093034 52 22 0.0 0.0 0.00 0.00 0.00 83 1014.2
20260505091534 52 22 0.0 0.0 0.00 0.00 0.00 82 1014.3
20260505090039 52 22 0.0 0.0 0.00 0.00 0.00 82 1014.5
20260505084526 53 22 0.0 0.0 0.00 0.00 0.00 80 1014.6
20260505083025 53 22 0.0 0.0 0.00 0.00 0.00 80 1014.5
20260505081526 54 22 0.0 0.0 0.00 0.00 0.00 80 1014.6
20260505080038 54 22 0.0 0.0 0.00 0.00 0.00 79 1014.5
20260505074525 54 22 0.0 0.0 0.00 0.00 0.00 79 1014.4
20260505073028 55 22 0.0 0.0 0.00 0.00 0.00 78 1014.4
20260505071518 55 22 0.0 0.0 0.00 0.00 0.00 78 1014.5
20260505070017 55 22 0.0 0.0 0.00 0.00 0.00 77 1014.4
20260505064515 56 22 0.0 0.0 0.00 0.00 0.00 76 1014.5
20260505063014 56 22 0.0 0.0 0.00 0.00 0.00 75 1014.5
20260505061510 57 22 0.0 0.0 0.00 0.00 0.00 74 1014.6
20260505060009 57 22 0.0 0.0 0.00 0.00 0.00 73 1014.6